Home > Weather > Ibiza > Past weeks

Flag for Spain Past Weather in Ibiza, Ibiza, Spain — Yesterday and Last 2 Weeks

Now
57 °F

Passing clouds.


Feels Like: 57 °F
Forecast: 56 / 76 °F
Wind: 1 mph from North

Location: Ibiza / Es Codola

Current Time: Jun 1, 2016 at 7:45:58 AM

Latest Report: Jun 1, 2016 at 7:00 AM


Visibility: N/A

Pressure: 30.07 "Hg

Humidity: 82%

Dew Point: 52 °F

Location of IbizaLocation

Past Weather in Ibiza — Graph

°F

Ibiza Temperature Yesterday

Maximum temperature yesterday: 75 °F (at 12:30 PM)
Minimum temperature yesterday: 59 °F (at 5:30 AM)
Average temperature yesterday: 68 °F

High & Low Weather Summary for the Past Weeks

 TemperatureHumidityPressure
High79 °F (May 30, 2:30 PM)94% (May 17, 6:00 AM)30.21 "Hg (May 17, 6:00 AM)
Low55 °F (May 18, 5:00 AM)29% (May 23, 10:00 AM)29.83 "Hg (May 25, 3:30 AM)
Average67 °F72%30.01 "Hg
* Reported May 17 6:00 AM — Jun 1 6:30 AM, Ibiza, Weather by CustomWeather, © 2016

Note: Actual official high and low records may vary slightly from our data, if they occured in-between our weather recording intervals... More about our weather records

Advertising

Ibiza Weather History for the Previous 24 Hours

Scroll right to see more
 ConditionsComfort  
Time TempWeatherWind HumidityBarometerVisibility
6:30 AM
Wed, Jun 1
59 °FClear.5 mph82%30.07 "Hg10 mi
6:00 AM59 °FClear.1 mph77%30.07 "Hg10 mi
5:30 AM59 °FClear.2 mph77%30.07 "Hg10 mi
5:00 AM59 °FClear.2 mph77%30.07 "Hg10 mi
4:30 AM59 °FClear.5 mph77%30.07 "Hg10 mi
3:30 AM61 °FClear.2 mph72%30.07 "Hg10 mi
3:00 AM61 °FClear.No wind68%30.09 "Hg10 mi
2:30 AM61 °FClear.2 mph68%30.09 "Hg10 mi
2:00 AM61 °FClear.1 mph63%30.09 "Hg10 mi
1:30 AM61 °FClear.3 mph63%30.09 "Hg10 mi
1:00 AM61 °FClear.1 mph63%30.09 "Hg10 mi
12:30 AM63 °FClear.2 mph59%30.09 "Hg10 mi
12:00 AM63 °FClear.No wind59%30.09 "Hg10 mi
11:30 PM
Tue, May 31
63 °FClear.2 mph59%30.09 "Hg10 mi
11:00 PM64 °FClear.2 mph56%30.09 "Hg10 mi
10:30 PM66 °FClear.2 mph56%30.09 "Hg10 mi
10:00 PM66 °FSunny.1 mph64%30.07 "Hg10 mi
9:30 PM68 °FSunny.2 mph60%30.07 "Hg10 mi
9:00 PM68 °FSunny.2 mph60%30.07 "Hg10 mi
8:30 PM70 °FPassing clouds.5 mph57%30.07 "HgN/A
8:00 PM70 °FPassing clouds.7 mph60%30.07 "HgN/A
7:30 PM70 °FPassing clouds.8 mph60%30.07 "HgN/A
7:00 PM70 °FSunny.12 mph57%30.07 "Hg10 mi
6:30 PM72 °FPassing clouds.13 mph57%30.07 "HgN/A
6:00 PM72 °FPassing clouds.14 mph57%30.07 "HgN/A
5:30 PM72 °FPassing clouds.15 mph50%30.07 "HgN/A
5:00 PM73 °FPassing clouds.14 mph38%30.07 "HgN/A
4:30 PM75 °FPassing clouds.14 mph36%30.07 "HgN/A
4:00 PM75 °FPassing clouds.13 mph41%30.07 "HgN/A
3:30 PM75 °FPassing clouds.13 mph41%30.07 "HgN/A
3:00 PM75 °FPassing clouds.15 mph41%30.07 "HgN/A
2:30 PM75 °FPassing clouds.15 mph41%30.07 "HgN/A
2:00 PM75 °FPassing clouds.15 mph39%30.07 "HgN/A
1:30 PM75 °FSunny.15 mph39%30.07 "Hg10 mi
1:00 PM75 °FPassing clouds.15 mph36%30.07 "HgN/A
12:30 PM75 °FPassing clouds.14 mph41%30.07 "HgN/A
12:00 PM73 °FSunny.13 mph47%30.07 "Hg10 mi
11:30 AM72 °FSunny.15 mph61%30.07 "Hg10 mi
11:00 AM72 °FPassing clouds.14 mph57%30.07 "HgN/A
10:30 AM72 °FPassing clouds.12 mph61%30.07 "HgN/A
10:00 AM72 °FPassing clouds.10 mph61%30.07 "HgN/A
9:30 AM72 °FSunny.9 mph57%30.07 "Hg10 mi
9:00 AM70 °FPassing clouds.6 mph69%30.07 "HgN/A
8:30 AM68 °FPassing clouds.6 mph64%30.07 "HgN/A
8:00 AM66 °FSunny.7 mph68%30.04 "Hg10 mi
7:30 AM64 °FClear.6 mph68%30.04 "Hg10 mi
7:00 AM63 °FClear.3 mph68%30.04 "Hg10 mi
Weather by CustomWeather, © 2016

See weather overviewHow to use our weather pages